Starlink 5931

operational
NORAD ID: 56785 Int'l Des: 2023-078 Owner: SPXS Country: US Constellation: starlink
LEOCIRCULAR

Über Starlink 5931

Beschreibung wird geladen...

Live-Position

3D-Globus wird geladen...

Nächste Überflüge

Höhenverlauf

Altitude vs Time

uPlot chart will show altitude changes over time

Zweizeiliger Elementsatz

1 56785U 23078U 25259.89036714 .00000704 00000-0 66781-4 0 9995
2 56785 69.9993 62.7928 0002977 271.4830 88.5988 14.98323712127334
Epoch: 16. Sept. 2025 • Age: 28 hours

Aktueller Status

Höhe 575.2 km
Geschwindigkeit 7.57 km/s
Subsatellitenpunkt -5.81°S, 136.79°W
Startdatum 31. Mai 2023
Alter 2.2 years
Typ internet

Technische Details

Klassifizierung Payload
Masse 305.00 kg
Trockenmasse 290.00 kg
Gesamtmasse 305.00 kg
Länge 0.20 m
Durchmesser 2.80 m
Spannweite 9.00 m
Form Box + pan
Hersteller SPXS
Bus-Typ Starlink
Phasenstatus In Orbit
Besitzer/Staat SPXS/US

Große Konstellationen

Loading constellations...